Theta_e
323 323 322 321 321 320 320 320 319 319 318 317 317 318 318 319 319 318 317 315 314 316 317 319 319 318 316 315 319 323 324 324 325 325 325 324 324 330 331 330 328 337 340 343 344 347 346
324 324 323 323 321 320 319 319 318 318 319 319 318 317 317 318 318 319 319 317 315 315 316 318 319 319 317 316 319 324 323 322 325 326 325 324 327 329 329 327 326 327 340 346 347 346 347
324 323 323 323 322 322 321 321 320 319 318 317 317 319 319 317 317 318 319 319 315 315 315 317 319 319 318 317 324 324 327 326 323 323 325 325 325 325 329 327 326 327 332 342 342 341 344
324 323 323 323 323 323 323 323 322 321 320 320 318 316 317 319 318 317 318 320 315 315 316 317 319 318 318 318 323 325 325 329 318 321 323 324 323 326 326 325 324 326 333 342 342 343 341
324 324 324 324 323 323 323 323 323 322 320 319 319 318 316 316 319 317 318 319 316 317 317 318 318 318 319 318 321 323 323 329 320 319 321 324 325 325 324 321 322 323 327 329 334 343 344
324 324 324 324 323 323 323 323 323 323 322 321 320 319 318 315 319 317 318 318 317 318 318 318 318 322 323 323 322 322 323 326 325 321 322 323 324 319 316 318 323 326 327 327 326 340 343
324 324 324 324 324 324 324 324 323 324 323 323 321 319 318 316 318 318 318 318 325 323 321 321 321 322 324 325 324 325 324 323 327 323 321 322 322 322 321 319 321 322 324 325 325 327 342
323 324 324 324 324 324 324 323 323 323 323 323 322 320 318 316 318 318 319 319 327 324 322 324 325 326 326 327 327 324 324 323 325 322 319 318 319 319 321 321 321 321 322 322 323 327 339
321 322 324 324 324 324 324 323 323 323 323 323 322 322 318 317 319 319 321 321 322 321 322 325 326 326 326 327 327 325 323 323 323 320 318 318 319 319 322 322 322 321 320 321 325 327 335
319 320 322 324 324 324 323 323 323 323 323 322 323 323 318 317 318 324 325 322 325 326 320 324 326 327 327 328 325 325 325 325 322 321 317 317 318 319 319 319 319 319 320 322 323 325 324
318 319 321 324 324 324 324 323 323 323 322 323 323 323 318 317 322 326 324 323 325 326 325 329 327 329 328 327 325 324 326 327 323 321 319 321 321 319 318 319 319 320 321 320 323 323 322
317 317 321 324 324 324 324 323 323 323 323 323 322 323 318 318 320 324 324 323 325 324 329 330 328 329 325 326 326 324 324 327 325 322 320 319 321 320 319 320 319 320 320 317 316 317 319
314 315 322 324 324 324 323 323 323 323 323 323 323 322 318 318 321 323 324 325 322 328 327 329 327 325 324 324 325 325 322 322 320 320 319 319 320 320 321 322 321 318 316 317 320 318 320
311 317 323 323 323 323 323 323 323 323 322 323 323 321 319 319 323 322 322 321 329 328 330 327 326 323 325 324 324 324 322 321 318 319 318 321 323 323 322 322 323 318 316 317 321 318 318
311 319 323 322 322 323 323 324 324 323 322 322 323 326 325 321 323 321 323 322 323 326 328 326 325 326 326 325 326 325 321 320 320 318 322 320 323 323 324 323 321 320 319 316 315 315 317
319 322 321 320 321 322 323 323 325 324 322 321 321 328 327 323 324 323 320 321 323 324 325 325 325 326 327 326 327 323 322 322 322 320 321 323 323 323 325 323 321 322 318 321 315 323 323
315 317 316 318 320 320 322 325 325 325 323 321 322 328 328 323 322 324 319 319 323 325 327 327 327 326 326 326 325 325 324 324 324 325 321 319 321 326 327 325 322 321 321 317 317 317 322
309 311 315 318 319 322 325 324 324 324 322 321 322 324 326 321 322 317 319 320 325 325 328 326 324 323 323 324 327 326 326 327 330 327 322 319 318 323 324 323 322 320 320 319 321 323 318
311 313 317 318 323 324 324 324 323 321 317 321 322 325 326 322 321 319 319 321 325 326 326 325 325 325 326 325 328 327 327 328 329 326 330 322 319 323 325 324 324 326 322 318 316 316 321
314 316 319 323 323 323 323 322 322 319 316 320 323 319 323 324 321 319 320 321 322 325 324 324 323 324 324 323 322 326 327 327 327 327 328 324 318 322 327 327 325 328 327 325 321 322 322
321 321 322 322 322 322 322 321 320 317 316 320 319 316 316 316 317 317 318 320 321 321 323 322 321 323 324 325 324 326 325 323 324 324 324 322 324 324 324 325 327 327 328 326 326 324 327
322 322 321 321 321 321 321 320 320 316 316 318 318 317 317 316 317 317 315 319 321 320 320 320 321 322 321 322 323 322 323 322 323 320 322 321 327 326 328 327 329 329 327 327 327 327 328
319 321 322 321 320 321 321 320 319 315 314 316 317 317 317 315 316 317 317 319 320 319 320 320 320 320 321 321 322 322 322 322 320 321 321 322 323 325 328 327 330 331 328 327 328 329 327
321 322 322 321 321 321 320 319 317 313 312 312 315 317 316 314 315 316 317 318 319 317 318 320 319 319 321 321 320 321 321 319 318 317 320 321 321 323 325 326 334 330 326 329 331 331 335
320 320 320 321 321 320 319 319 316 312 311 312 315 315 316 312 314 317 317 317 317 317 316 318 318 318 320 320 316 317 317 318 318 318 318 316 319 323 327 326 326 328 328 329 328 329 326
319 319 320 321 320 319 318 318 315 312 311 311 315 315 314 314 312 315 315 315 313 313 313 317 317 319 320 314 316 321 320 321 320 319 317 316 317 322 325 330 332 327 327 327 328 328 329
319 319 320 320 320 319 318 318 313 312 312 309 313 314 314 314 314 315 314 313 315 314 312 314 314 317 318 314 316 317 318 318 320 322 321 319 320 322 322 326 324 326 325 327 332 330 330
318 319 319 318 318 318 318 317 312 312 312 309 312 313 313 312 312 312 314 313 315 314 311 314 312 314 313 315 318 317 319 319 321 320 320 321 322 322 322 325 328 326 326 329 327 328 329
318 318 318 318 317 318 317 314 311 311 310 307 305 306 308 310 310 309 314 314 313 313 313 313 313 312 314 312 313 314 318 317 317 321 315 318 318 320 322 325 323 327 326 326 326 328 327
Wind_Speed
19 18 18 18 17 17 16 15 14 13 12 11 11 11 11 10 10 10 10 10 9 9 8 8 8 8 7 4 5 2 4 11 15 14 12 7 5 2 3 8 13 4 5 10 8 14 18
18 18 18 18 18 18 18 17 16 15 14 13 13 12 12 11 11 11 10 10 9 8 8 7 7 8 6 4 6 5 3 4 14 15 13 11 1 2 8 5 3 8 6 4 4 9 10
18 18 18 18 19 19 19 19 18 18 16 16 14 14 13 12 12 11 11 10 9 9 7 7 7 8 11 11 6 8 4 2 11 16 15 11 8 7 10 6 3 7 3 4 4 1 4
18 18 18 19 20 20 20 21 20 20 19 18 17 16 15 14 13 11 10 10 9 8 7 7 7 8 8 5 12 13 8 3 9 14 12 9 6 10 6 10 7 4 4 2 4 4 3
18 19 19 19 20 20 21 22 22 22 22 21 20 19 17 16 14 10 9 8 7 5 5 6 6 6 8 8 17 11 8 5 3 10 9 5 4 4 4 3 5 6 2 4 7 11 4
17 18 19 19 20 21 22 23 23 24 23 23 22 21 19 17 14 9 7 6 3 2 4 6 7 4 8 2 11 14 11 11 3 7 5 3 3 2 4 4 4 1 3 6 7 4 3
15 17 18 19 20 21 22 24 24 24 24 24 24 23 21 18 14 8 5 2 2 3 10 10 4 4 6 6 5 13 16 13 11 4 4 2 3 7 9 6 4 4 3 7 18 12 7
15 16 17 19 20 22 23 25 26 26 25 25 24 24 21 18 13 7 4 4 2 2 10 16 22 25 23 16 5 11 20 12 7 5 3 5 7 10 4 4 5 5 5 14 15 13 11
15 16 17 19 21 23 24 26 26 26 26 26 25 25 20 16 10 3 1 3 5 8 4 8 12 15 16 12 11 15 24 19 5 6 5 7 10 5 4 6 5 8 5 8 9 6 2
15 16 17 19 21 24 25 27 28 28 27 27 25 25 19 13 3 3 6 6 7 2 5 5 4 3 11 6 5 16 27 21 2 10 8 6 11 10 5 8 8 7 8 10 8 2 3
15 16 16 18 21 24 26 28 29 30 29 27 25 24 18 9 3 5 1 5 3 1 2 2 3 1 11 10 3 8 30 21 8 7 7 9 2 4 5 14 5 12 10 6 8 2 2
15 16 16 18 20 24 27 29 30 31 30 27 24 23 16 7 9 7 3 2 3 5 1 2 4 5 5 4 1 5 15 20 7 5 3 8 6 5 9 9 8 12 2 5 4 3 3
14 15 16 18 21 24 27 30 32 32 30 27 23 20 12 5 7 8 5 3 5 3 4 2 4 5 4 4 2 2 5 6 7 4 5 5 11 6 9 5 0 4 5 2 4 5 7
14 14 15 18 21 23 27 31 33 34 31 28 23 14 3 7 10 8 7 5 1 2 4 4 3 3 5 5 5 3 5 5 6 3 3 4 7 6 5 9 9 7 8 6 5 3 5
13 13 15 18 21 24 27 31 35 35 32 28 19 7 2 8 12 8 6 3 5 5 3 7 6 4 2 2 4 3 8 6 8 9 8 5 6 4 5 6 9 4 3 4 7 1 3
13 14 16 19 21 24 27 31 35 35 32 27 14 4 5 5 12 9 4 4 4 4 6 4 3 2 3 3 3 5 7 5 6 13 9 3 6 5 5 4 2 8 7 3 3 2 4
14 15 17 19 22 25 28 31 34 35 32 25 7 3 5 6 11 3 3 6 5 7 12 3 4 3 2 1 3 3 4 4 3 1 17 5 5 13 3 4 7 2 2 6 5 5 5
15 16 18 20 22 25 28 30 32 34 31 24 6 3 8 13 3 2 1 4 8 11 11 4 4 8 7 6 4 4 5 3 14 3 6 8 5 8 13 6 3 5 9 6 5 6 2
15 16 18 20 23 26 27 28 29 28 28 25 9 3 7 11 2 3 6 6 3 3 4 5 5 5 1 6 3 4 1 3 17 6 3 2 3 4 10 4 2 4 5 5 6 4 5
15 16 18 20 24 26 27 28 25 23 20 16 6 3 4 5 5 2 5 5 7 9 2 5 3 5 5 6 7 3 7 4 14 10 11 5 4 7 10 12 3 4 5 5 6 4 4
15 16 18 21 24 26 25 26 24 21 16 10 7 3 4 3 4 4 2 4 6 7 8 16 5 6 2 6 5 4 2 6 8 10 9 4 1 3 5 4 2 4 4 6 5 6 5
16 16 17 21 23 23 24 24 23 19 14 8 5 5 6 4 7 5 5 6 7 6 4 5 3 3 4 3 4 3 0 0 4 6 5 4 1 3 4 5 3 4 7 6 6 5 5
17 18 19 20 20 22 22 21 21 18 16 7 8 5 3 5 5 3 2 5 5 8 4 9 5 3 3 4 7 12 13 10 9 5 2 1 2 3 5 5 7 2 5 8 3 2 5
18 18 19 19 17 18 19 17 18 16 16 12 10 6 4 3 2 2 4 8 5 6 4 6 13 6 9 20 11 10 12 13 13 11 15 7 4 4 4 4 4 4 8 3 11 4 4
19 18 18 17 14 17 16 14 15 13 13 8 8 5 4 2 3 5 9 3 8 13 6 5 10 18 20 5 4 5 5 7 5 4 5 6 4 3 4 5 4 3 4 3 4 3 6
16 17 17 12 12 14 14 11 12 10 10 6 5 6 3 2 4 2 5 5 2 3 6 4 16 15 13 4 3 2 2 3 6 10 4 2 1 4 2 5 9 7 4 7 0 3 9
14 15 13 10 12 13 10 9 9 9 9 8 4 5 4 4 4 2 2 4 6 2 3 5 14 10 14 4 2 2 3 2 3 5 6 5 4 1 3 4 4 4 10 8 4 6 2
13 10 7 10 12 10 9 9 8 9 9 6 5 7 6 4 16 6 2 8 8 5 2 9 8 5 5 5 3 2 0 2 3 3 4 1 2 2 3 1 0 8 5 3 2 3 3
10 8 8 10 10 8 8 7 7 9 10 8 4 9 12 10 10 22 9 6 10 20 15 3 2 3 1 3 2 1 2 2 2 3 4 4 3 3 4 4 5 7 6 10 5 3 6
Wind_Direction
44 43 40 37 33 29 25 21 16 9 1 352 343 335 327 324 320 317 314 311 303 293 288 289 292 301 311 285 235 86 120 194 196 216 227 238 270 268 301 319 337 116 305 268 237 207 213
38 37 36 33 31 27 24 20 16 11 5 358 350 341 331 323 317 313 311 309 302 290 279 275 279 288 292 276 170 159 108 192 205 215 227 232 213 16 304 304 342 307 326 351 212 184 186
36 35 33 31 28 24 21 17 14 10 4 358 352 345 337 328 318 310 307 305 301 291 276 264 265 275 271 233 184 174 150 164 222 224 228 239 263 299 319 307 354 276 292 343 256 223 198
35 32 29 26 23 20 15 12 9 6 2 357 352 346 339 331 323 310 301 301 299 286 267 253 257 269 256 183 199 188 187 188 196 209 227 245 280 292 264 308 319 340 46 33 264 207 222
32 29 26 23 19 17 13 9 5 2 358 355 351 345 339 332 326 313 296 301 298 278 258 238 241 247 265 215 201 191 189 180 150 192 212 229 280 270 313 35 358 4 301 290 320 221 168
25 24 23 20 17 14 11 8 3 359 355 352 348 344 339 333 328 316 294 300 280 257 234 226 233 279 245 194 219 209 188 202 164 189 222 223 195 51 40 73 241 296 338 314 270 328 292
15 15 14 14 11 8 6 4 360 355 352 350 346 343 338 333 326 315 281 264 237 250 225 217 195 231 289 56 179 196 189 195 221 187 149 71 71 228 236 208 216 313 286 277 282 268 196
8 6 6 6 4 2 0 359 356 353 349 346 344 341 338 331 324 309 261 221 233 9 292 267 251 253 249 253 303 207 195 174 173 200 99 15 256 245 219 234 230 251 280 277 280 272 178
359 359 359 359 359 358 356 355 354 353 348 344 342 340 339 331 322 308 85 70 330 283 285 287 245 240 234 218 221 219 196 198 147 174 178 172 228 86 178 271 264 266 223 264 239 329 242
351 352 353 354 356 355 355 353 353 351 348 343 341 338 337 333 315 127 94 20 18 327 43 273 243 252 178 188 237 201 194 187 177 184 159 218 263 251 225 250 161 276 221 239 269 329 268
346 348 349 351 352 352 351 351 350 349 346 341 339 333 332 321 226 159 78 20 39 27 12 146 196 165 162 169 117 198 190 193 178 179 122 238 235 183 230 245 146 241 275 246 265 80 349
342 345 347 348 349 349 349 349 348 347 344 338 337 327 325 302 207 182 169 70 103 39 267 313 133 169 120 212 309 110 176 196 225 171 235 235 252 176 220 250 196 244 195 44 55 81 341
341 343 345 347 347 348 349 348 347 347 343 336 335 323 314 249 179 195 185 151 39 135 318 18 229 166 157 178 277 107 146 186 185 137 261 294 257 220 202 253 176 101 62 336 352 358 234
342 343 344 345 346 346 347 348 347 348 346 337 337 329 304 177 167 180 161 56 186 255 277 328 334 72 141 144 240 173 156 217 266 98 95 217 319 175 183 179 202 197 159 158 203 211 259
342 343 344 344 344 344 345 346 347 348 349 340 342 349 82 178 174 161 154 85 218 221 332 325 323 100 255 276 180 155 191 212 210 169 193 182 266 269 212 171 143 196 171 195 107 22 33
346 345 344 344 344 344 343 343 343 345 351 344 346 32 102 130 175 159 80 239 245 239 336 348 324 125 151 270 176 159 200 219 219 184 156 254 306 243 282 135 99 170 159 89 8 184 254
346 346 345 344 344 344 344 344 344 342 350 351 356 81 134 140 167 146 158 235 277 291 342 289 266 255 217 187 200 214 229 289 204 212 184 173 154 263 13 233 176 100 208 60 121 143 170
343 344 345 346 346 345 344 345 346 343 348 358 8 58 152 150 69 43 175 218 306 289 322 276 229 213 184 182 206 231 223 24 357 219 172 214 170 244 229 277 304 187 194 142 135 244 215
343 345 347 347 347 346 345 348 349 347 350 355 354 10 186 183 81 333 312 291 273 303 301 341 344 26 7 195 199 215 49 348 19 49 18 189 235 261 295 318 7 211 169 132 116 102 205
343 345 346 347 346 346 344 347 352 351 352 357 1 21 43 184 86 90 357 310 318 313 68 9 16 36 14 30 5 42 1 331 341 14 15 153 168 184 223 232 163 184 165 148 139 127 176
339 343 346 345 345 346 347 350 355 357 357 5 18 46 18 333 342 1 303 336 337 349 13 20 34 43 334 30 16 33 4 325 322 10 11 73 10 311 274 237 185 204 220 175 153 182 155
333 334 338 345 345 346 348 352 358 7 12 33 32 13 356 326 315 339 4 13 359 327 348 345 14 295 75 134 167 274 352 195 262 329 15 359 271 355 285 333 223 210 236 221 199 199 211
325 327 330 334 341 341 347 352 359 10 20 45 37 12 347 353 352 38 355 320 350 338 293 38 323 319 307 299 260 272 257 236 225 192 264 335 67 39 274 342 320 314 216 219 192 51 198
320 324 326 327 333 340 345 350 0 9 17 24 23 21 13 292 26 59 310 311 324 345 269 325 6 17 328 324 277 272 275 270 251 233 211 183 166 152 235 12 224 251 306 67 99 43 60
312 315 319 322 332 338 341 347 357 10 12 20 25 31 15 294 261 306 332 313 329 337 339 294 346 334 330 329 31 11 334 351 301 268 249 191 143 208 184 189 271 338 2 323 350 210 349
307 311 314 320 331 330 335 344 352 5 9 359 3 20 8 313 249 349 305 316 313 318 335 307 334 342 356 67 70 114 247 288 319 324 24 96 53 153 125 179 220 206 211 350 282 236 341
307 305 309 320 320 325 331 340 347 359 1 353 292 329 342 289 289 291 302 297 302 346 268 310 343 335 7 27 64 168 258 284 307 323 334 340 7 196 210 223 289 289 306 327 183 237 355
306 306 311 308 317 321 328 337 342 351 353 349 292 300 317 275 292 252 263 286 273 267 166 323 343 356 11 43 48 295 330 299 358 283 330 50 339 335 357 2 219 334 355 45 232 73 25
318 316 305 308 315 316 324 331 340 342 346 346 324 284 291 280 273 296 300 4 294 260 270 288 276 275 294 60 355 333 331 357 156 288 333 15 143 250 183 228 273 322 10 17 351 314 317